Location: Balaclava NSW 2575, Australia
(34.4510°S, 150.4953°E)
Time: 22:40:25
(UTC+10:00)

X-37B - Pass Details

Date: 07 August 2021
Orbit: 381 x 393 km, 45.0° (Epoch: 29 August)

Event Time Altitude Azimuth Distance (km) Brightness Sun altitude
Rises 19:37:51 0° 249° (WSW) 2,307 5.5 -28.3°
Reaches altitude 10° 19:40:10 10° 262° (W) 1,442 4.4 -28.8°
Enters shadow 19:41:06 16° 274° (W) 1,143 3.7 -29.0°
